This demonstration page uses our WeatherBlox Daily Observations layout. Learn more.

Left ArrowRight Arrow

Hourly Observations for August 20, 2022

Temp ( °F °C ) Dew Point ( °F °C ) Humidity (%) Winds ( mph kmh ) Pressure ( in mb ) Visibility ( mi km ) Precip ( " mm )
12:56 am 00:56 Clear 70 21.3 61 16 72 72 WSW 6 9 29.91 1013 10 16 0.00 0.00
1:56 am 01:56 Clear 69 20.5 60 15.5 73 73 W 5 7 29.91 1013 10 16 0.00 0.00
2:56 am 02:56 Clear 68 20.1 59 15.1 73 73 W 7 11 29.90 1013 10 16 0.00 0.00
3:56 am 03:56 Clear 66 19 59 15.1 78 78 WNW 6 9 29.91 1013 10 16 0.00 0.00
4:56 am 04:56 Partly Cloudy 66 18.8 59 15.1 79 79 W 5 7 29.92 1013 10 16 0.00 0.00
5:56 am 05:56 Mostly Cloudy 65 18.6 60 15.3 81 81 WNW 5 7 29.94 1014 10 16 0.00 0.00
6:56 am 06:56 Partly Cloudy 64 17.8 60 15.6 87 87 WNW 5 7 29.98 1015 10 16 0.00 0.00
7:56 am 07:56 Cloudy 66 18.8 60 15.6 82 82 NW 8 13 30.00 1016 10 16 0.00 0.00
8:56 am 08:56 Cloudy 67 19.7 60 15.7 78 78 WNW 9 15 30.01 1016 10 16 0.00 0.00
9:56 am 09:56 Mostly Cloudy 68 20.2 59 15.2 73 73 NNW 9 15 30.02 1017 10 16 0.00 0.00
10:56 am 10:56 Mostly Cloudy 69 20.7 59 15.2 71 71 N 9 15 30.04 1017 10 16 0.00 0.00
11:56 am 11:56 Mostly Cloudy 71 21.9 60 15.5 67 67 NW 9 15 30.04 1017 10 16 0.00 0.00
12:56 pm 12:56 Cloudy 73 22.9 60 15.5 63 63 N 10 17 30.04 1017 10 16 0.00 0.00
1:56 pm 13:56 Mostly Sunny 76 24.4 60 15.6 58 58 WNW 13 20 30.04 1017 9 14 0.00 0.00
2:56 pm 14:56 Partly Cloudy 77 25.1 61 16 57 57 WNW 12 19 30.02 1017 10 16 0.00 0.00
3:56 pm 15:56 Partly Cloudy 80 26.7 60 15.7 51 51 NW 12 19 30.01 1016 10 16 0.00 0.00
4:56 pm 16:56 Partly Cloudy 81 27.4 60 15.4 48 48 N 9 15 30.00 1016 10 16 0.00 0.00
5:56 pm 17:56 Mostly Cloudy 82 27.7 58 14.7 45 45 N 8 13 29.99 1016 10 16 0.00 0.00
6:56 pm 18:56 Mostly Cloudy 79 26.2 59 15.2 51 51 N 7 11 29.99 1016 10 16 0.00 0.00
7:56 pm 19:56 Mostly Cloudy 77 24.8 62 16.7 61 61 ENE 3 6 30.01 1016 10 16 0.00 0.00
8:56 pm 20:56 Mostly Cloudy 75 23.8 62 16.6 64 64 NNE 3 6 30.04 1017 10 16 0.00 0.00
9:56 pm 21:56 Clear 73 22.6 61 16.1 67 67 N 5 7 30.06 1018 10 16 0.00 0.00
10:56 pm 22:56 Clear 71 21.6 61 16.3 72 72 N 3 6 30.07 1018 10 16 0.00 0.00
11:56 pm 23:56 Clear 70 21 62 16.4 75 75 N 3 6 30.07 1018 10 16 0.00 0.00

Powered by AerisWeather